FW6247 Weather Reports


Display with metric or nautical units.
time (UTC)temp
F
wind
direction
speed
MPH
gust
MPH
rain 1hr
in
rain 24hr
in
rain mn
in
humidity
%
barometer
mb
20260509171529 63 19 1.0 6.0 0.00 0.00 0.00 56 1022.8
20260509170028 62 18 1.0 5.0 0.00 0.00 0.00 56 1022.9
20260509164531 62 15 0.0 4.0 0.00 0.00 0.00 55 1023.0
20260509163106 63 42 1.0 4.0 0.00 0.00 0.00 56 1023.1
20260509153146 54 62 1.0 3.0 0.00 0.00 0.00 75 1023.2
20260509151530 52 356 0.0 2.0 0.00 0.00 0.00 79 1023.2
20260509150158 0 0 0.0 0.0 0.00 0.00 0.00 100
20260509144528 48 166 3.0 5.0 0.00 0.00 0.00 82 1023.2
20260509141529 45 174 4.0 8.0 0.00 0.00 0.00 83 1023.1
20260509140030 44 164 5.0 8.0 0.00 0.00 0.00 83 1023.1
20260509134533 43 172 5.0 8.0 0.00 0.00 0.00 85 1023.0
20260509133028 43 173 4.0 7.0 0.00 0.00 0.00 85 1022.9
20260509131602 42 171 5.0 9.0 0.00 0.00 0.00 85 1022.6
20260509130031 42 166 4.0 7.0 0.00 0.00 0.00 84 1022.5
20260509124606 43 179 4.0 6.0 0.00 0.00 0.00 84 1022.5
20260509123028 43 163 4.0 6.0 0.00 0.00 0.00 84 1022.5
20260509120029 42 163 4.0 6.0 0.00 0.00 0.00 83 1022.6
20260509111529 43 163 2.0 6.0 0.00 0.00 0.00 81 1022.6
20260509110029 44 183 4.0 6.0 0.00 0.00 0.00 79 1022.5
20260509104531 45 178 4.0 7.0 0.00 0.00 0.00 79 1022.5
20260509103104 45 172 5.0 9.0 0.00 0.00 0.00 78 1022.5
20260509101530 46 161 5.0 11.0 0.00 0.00 0.00 77 1022.6
20260509100031 47 168 5.0 8.0 0.00 0.00 0.00 77 1022.6
20260509094529 47 180 5.0 8.0 0.00 0.00 0.00 76 1022.5
20260509091530 48 173 3.0 5.0 0.00 0.00 0.00 74 1022.9
20260509090030 49 162 4.0 7.0 0.00 0.00 0.00 73 1023.0
20260509084531 49 148 2.0 6.0 0.00 0.00 0.00 73 1023.1
20260509083105 49 173 5.0 7.0 0.00 0.00 0.00 71 1023.2
20260509080029 50 237 0.0 4.0 0.00 0.00 0.00 69 1023.4
20260509074533 51 177 0.0 2.0 0.00 0.00 0.00 67 1023.4
20260509073147 53 220 0.0 5.0 0.00 0.00 0.00 64 1023.3
20260509071531 54 254 3.0 10.0 0.00 0.00 0.00 64 1023.2
20260509070032 54 267 4.0 10.0 0.00 0.00 0.00 64 1023.1
20260509064530 54 267 4.0 10.0 0.00 0.00 0.00 63 1023.1
20260509063029 55 265 3.0 8.0 0.00 0.00 0.00 62 1023.1
20260509061538 56 254 6.0 14.0 0.00 0.00 0.00 62 1022.9
20260509060031 56 254 10.0 19.0 0.00 0.00 0.00 62 1022.6
20260509054529 56 255 10.0 19.0 0.00 0.00 0.00 62 1022.7
20260509053032 56 262 9.0 17.0 0.00 0.00 0.00 62 1022.8
20260509051530 56 264 8.0 16.0 0.00 0.00 0.00 61 1023.0
20260509050029 56 265 8.0 16.0 0.00 0.00 0.00 60 1022.9
20260509044531 56 267 7.0 15.0 0.00 0.00 0.00 60 1022.8
20260509043106 57 277 7.0 16.0 0.00 0.00 0.00 59 1022.7
20260509041649 57 277 7.0 14.0 0.00 0.00 0.00 58 1022.6
20260509040029 57 277 6.0 13.0 0.00 0.00 0.00 57 1022.5
20260509034530 57 269 5.0 10.0 0.00 0.00 0.00 55 1022.3
20260509033031 58 281 5.0 11.0 0.00 0.00 0.00 53 1022.0
20260509031531 59 292 6.0 14.0 0.00 0.00 0.00 51 1021.7
20260509030030 60 293 7.0 15.0 0.00 0.00 0.00 49 1021.4
20260509024530 61 295 8.0 19.0 0.00 0.00 0.00 47 1021.1
20260509023032 62 294 10.0 20.0 0.00 0.00 0.00 45 1020.9
20260509021529 63 291 11.0 24.0 0.00 0.00 0.00 43 1020.7
20260509020027 64 282 14.0 26.0 0.00 0.00 0.00 41 1020.4
20260509014608 66 282 11.0 22.0 0.00 0.00 0.00 40 1020.6
20260509013031 67 300 9.0 22.0 0.00 0.00 0.00 38 1020.6
20260509011605 68 300 9.0 19.0 0.00 0.00 0.00 37 1020.5
20260509004531 69 305 5.0 16.0 0.00 0.00 0.00 36 1020.3
20260509003030 69 310 4.0 13.0 0.00 0.00 0.00 37 1020.3
20260509001530 69 309 3.0 12.0 0.00 0.00 0.00 37 1020.1
20260509000036 69 296 4.0 16.0 0.00 0.00 0.00 38 1020.1
20260508234528 68 316 4.0 16.0 0.00 0.00 0.00 39 1020.1
20260508233129 67 317 4.0 15.0 0.00 0.00 0.00 40 1020.1
20260508231533 68 312 5.0 14.0 0.00 0.00 0.00 40 1020.1
20260508230029 68 317 4.0 14.0 0.00 0.00 0.00 39 1020.1
20260508223041 68 314 4.0 14.0 0.00 0.00 0.00 40 1020.1
20260508221532 67 342 2.0 9.0 0.00 0.00 0.00 40 1020.3
20260508214530 66 337 3.0 10.0 0.00 0.00 0.00 41 1020.5
20260508213032 66 348 3.0 15.0 0.00 0.00 0.00 41 1020.5
20260508211529 66 331 4.0 11.0 0.00 0.00 0.00 42 1020.3
20260508210029 67 322 4.0 12.0 0.00 0.00 0.00 42 1020.1
20260508204530 67 25 3.0 8.0 0.00 0.00 0.00 41 1020.2
20260508203032 68 326 2.0 9.0 0.00 0.00 0.00 42 1020.3
20260508201530 67 344 1.0 7.0 0.00 0.00 0.00 42 1020.3
20260508200029 67 337 1.0 7.0 0.00 0.00 0.00 43 1020.4
20260508194529 66 347 2.0 8.0 0.00 0.00 0.00 44 1020.4
20260508193031 64 334 3.0 9.0 0.00 0.00 0.00 49 1020.4
20260508191529 62 345 2.0 8.0 0.00 0.00 0.00 50 1020.4
20260508190137 60 1 3.0 9.0 0.00 0.00 0.00 52 1020.4
20260508184530 58 349 2.0 9.0 0.00 0.00 0.00 55 1020.3
20260508183030 58 335 1.0 8.0 0.00 0.00 0.00 55 1020.3
20260508181534 59 315 3.0 11.0 0.00 0.00 0.00 55 1020.3
20260508174529 61 5 2.0 10.0 0.00 0.00 0.00 55 1019.6
20260508173030 61 23 2.0 6.0 0.00 0.00 0.00 55 1019.6